FW1222 Weather Reports


time (UTC)temp
C
wind
direction
speed
KPH
gust
KPH
rain 1hr
cm
rain 24hr
cm
rain mn
cm
humidity
%
barometer
mb
20260505070004 10 133 0.0 0.0 0.00 0.00 0.00 53 1014.8
20260505064506 11 133 0.0 0.0 0.00 0.00 0.00 49 1014.8
20260505063059 12 133 0.0 0.0 0.00 0.00 0.00 47 1014.6
20260505061559 12 133 0.0 0.0 0.00 0.00 0.00 46 1014.4
20260505060052 13 133 0.0 0.0 0.00 0.00 0.00 45 1014.4
20260505054609 13 133 0.0 0.0 0.00 0.00 0.00 45 1014.1
20260505053059 14 133 0.0 0.0 0.00 0.00 0.00 43 1013.9
20260505051544 14 133 0.0 0.0 0.00 0.00 0.00 43 1013.7
20260505041534 15 133 0.0 0.0 0.00 0.00 0.00 43 1012.5
20260505040032 16 133 0.0 0.0 0.00 0.00 0.00 43 1012.3
20260505034529 16 133 0.0 0.0 0.00 0.00 0.00 42 1012.1
20260505033027 16 133 0.0 0.0 0.00 0.00 0.00 42 1011.7
20260505031539 17 133 0.0 0.0 0.00 0.00 0.00 41 1011.2
20260505030020 17 133 0.0 0.0 0.00 0.00 0.00 40 1010.6
20260505024533 17 133 0.0 0.0 0.00 0.00 0.00 39 1010.3
20260505023022 18 133 0.0 0.0 0.00 0.00 0.00 37 1010.0
20260505021522 18 133 0.0 0.0 0.00 0.00 0.00 35 1009.8
20260505020026 19 133 0.0 0.0 0.00 0.00 0.00 33 1009.5
20260505014510 20 133 0.0 0.0 0.00 0.00 0.00 31 1009.2
20260505013007 20 133 0.0 0.0 0.00 0.00 0.00 30 1009.1
20260505011504 21 133 0.0 0.0 0.00 0.00 0.00 30 1008.9
20260505004557 23 133 0.0 0.0 0.00 0.00 0.00 28 1008.9
20260505003051 23 133 0.0 0.0 0.00 0.00 0.00 26 1008.8
20260505001554 24 133 0.0 0.0 0.00 0.00 0.00 28 1008.8
20260505000106 24 133 0.0 0.0 0.00 0.00 0.00 28 1008.8
20260504234545 25 133 0.0 0.0 0.00 0.00 0.00 26 1008.7
20260504233045 26 133 0.0 0.0 0.00 0.00 0.00 23 1008.8
20260504231546 27 133 0.0 0.0 0.00 0.00 0.00 23 1008.7
20260504230100 27 133 0.0 0.0 0.00 0.00 0.00 23 1008.7
20260504224539 26 133 0.0 0.0 0.00 0.00 0.00 23 1008.7
20260504223035 25 133 0.0 0.0 0.00 0.00 0.00 26 1008.6
20260504221544 26 133 0.0 0.0 0.00 0.00 0.00 23 1008.7
20260504220033 27 133 0.0 0.0 0.00 0.00 0.00 23 1008.9
20260504214535 29 135 0.0 0.0 0.00 0.00 0.00 20 1009.0
20260504213034 28 136 0.0 0.0 0.00 0.00 0.00 22 1009.0
20260504211531 30 138 0.0 0.0 0.00 0.00 0.00 19 1009.1
20260504210029 32 138 0.0 0.0 0.00 0.00 0.00 19 1009.2
20260504204529 32 140 0.0 0.0 0.00 0.00 0.00 17 1009.3
20260504203029 33 145 0.0 0.0 0.00 0.00 0.00 18 1009.7
20260504201525 33 145 0.0 0.0 0.00 0.00 0.00 17 1009.9
20260504200024 32 145 0.0 0.0 0.00 0.00 0.00 19 1010.2
20260504194526 30 145 0.0 0.0 0.00 0.00 0.00 22 1010.4
20260504193025 29 145 0.0 0.0 0.00 0.00 0.00 22 1010.8
20260504191525 28 145 0.0 0.0 0.00 0.00 0.00 25 1011.1
20260504190021 28 145 0.0 0.0 0.00 0.00 0.00 26 1011.2
20260504184518 27 145 0.0 0.0 0.00 0.00 0.00 27 1011.4
20260504183016 27 145 0.0 0.0 0.00 0.00 0.00 28 1011.7
20260504181516 27 145 0.0 0.0 0.00 0.00 0.00 27 1011.9
20260504180015 25 145 0.0 0.0 0.00 0.00 0.00 31 1012.3
20260504174513 24 145 0.0 0.0 0.00 0.00 0.00 30 1012.5
20260504173013 23 145 0.0 0.0 0.00 0.00 0.00 33 1012.7
20260504171513 22 145 0.0 0.0 0.00 0.00 0.00 35 1013.1
20260504081539 5 145 0.0 0.0 0.00 0.00 0.00 68 1014.2